Home > Weather > Beckum > Past weeks

Flag for Germany Weather for the Past 2 Weeks in Beckum, North Rhine-Westphalia, Germany

Now
48 °F

Clear.


Feels Like: 42 °F
Forecast: 41 / 47 °F
Wind: 15 mph from South

Location: Paderborn / Lippstadt

Current Time: Feb 7, 2016 at 5:13:57 AM

Latest Report: Feb 7, 2016 at 4:20 AM


Visibility: 10 mi

Pressure: 29.56 "Hg

Humidity: 62%

Dew point: 36 °F

Location of BeckumLocation

Historic Weather in Beckum — Graph

°F

Beckum Temperature Yesterday

Maximum temperature yesterday: 52 °F (at 11:50 AM)
Minimum temperature yesterday: 45 °F (at 3:50 AM)
Average temperature yesterday: 48 °F

High & Low Weather Summary for the Past Weeks

 TemperatureHumidityPressure
High54 °F (Jan 25, 11:50 AM)100% (Jan 23, 3:50 AM)30.54 "Hg (Jan 23, 3:50 AM)
Low32 °F (Jan 30, 8:20 PM)44% (Jan 25, 8:50 PM)29.56 "Hg (Feb 7, 2:20 AM)
Average43 °F82%30.07 "Hg
* Reported Jan 23 3:50 AM — Feb 7 3:50 AM, Beckum, Weather by CustomWeather, © 2016

Note: Actual official high and low records may vary slightly from our data, if they occured in-between our weather recording intervals... More about our weather records

Advertising

Beckum Weather History for the Previous 24 Hours

 ConditionsComfort  
Time TempWeatherWind HumidityBarometerVisibility
3:50 AM
Sun, Feb 7
48 °FClear.17 mph62%29.56 "Hg10 mi
2:50 AM50 °FClear.21 mph58%29.56 "Hg10 mi
2:20 AM50 °FClear.18 mph58%29.56 "Hg10 mi
1:50 AM50 °FClear.17 mph58%29.59 "Hg10 mi
12:50 AM48 °FClear.13 mph62%29.62 "Hg10 mi
11:50 PM
Sat, Feb 6
48 °FClear.9 mph62%29.62 "Hg10 mi
11:20 PM48 °FClear.12 mph62%29.62 "Hg10 mi
10:50 PM48 °FClear.15 mph62%29.65 "Hg10 mi
9:50 PM50 °FClear.23 mph58%29.68 "Hg10 mi
9:20 PM50 °FClear.20 mph58%29.68 "Hg10 mi
8:50 PM48 °FClear.15 mph62%29.68 "Hg10 mi
8:20 PM48 °FClear.13 mph62%29.71 "Hg10 mi
7:50 PM48 °FClear.10 mph62%29.71 "Hg10 mi
7:20 PM46 °FClear.8 mph71%29.71 "Hg10 mi
6:50 PM48 °FPassing clouds.5 mph66%29.74 "HgN/A
6:20 PM48 °FClear.8 mph66%29.74 "Hg10 mi
5:50 PM48 °FClear.9 mph66%29.74 "Hg10 mi
5:20 PM50 °FSunny.9 mph58%29.77 "Hg10 mi
4:50 PM52 °FSunny.8 mph58%29.77 "Hg10 mi
4:20 PM52 °FSunny.14 mph58%29.77 "Hg10 mi
3:50 PM52 °FSunny.14 mph58%29.77 "Hg10 mi
3:20 PM52 °FSunny.14 mph58%29.77 "Hg10 mi
2:50 PM52 °FSunny.13 mph58%29.80 "Hg10 mi
2:20 PM52 °FSunny.12 mph62%29.83 "Hg10 mi
1:50 PM52 °FSunny.12 mph62%29.83 "Hg10 mi
1:20 PM52 °FSunny.14 mph62%29.83 "Hg10 mi
12:50 PM52 °FPassing clouds.12 mph62%29.86 "HgN/A
12:20 PM52 °FSunny.14 mph58%29.86 "Hg10 mi
11:50 AM52 °FPassing clouds.12 mph62%29.89 "HgN/A
11:20 AM50 °FSunny.14 mph67%29.89 "Hg10 mi
10:50 AM48 °FSunny.15 mph71%29.89 "Hg10 mi
10:20 AM46 °FSunny.13 mph71%29.89 "Hg10 mi
9:50 AM46 °FSunny.9 mph71%29.92 "Hg10 mi
9:20 AM46 °FSunny.12 mph71%29.92 "Hg10 mi
8:50 AM45 °FSunny.16 mph76%29.92 "Hg10 mi
8:20 AM45 °FSunny.16 mph76%29.92 "Hg10 mi
7:50 AM45 °FClear.16 mph76%29.92 "Hg10 mi
7:20 AM45 °FClear.14 mph76%29.92 "Hg10 mi
6:50 AM45 °FClear.14 mph76%29.92 "Hg10 mi
6:20 AM45 °FClear.17 mph76%29.92 "Hg10 mi
5:50 AM45 °FClear.16 mph76%29.95 "Hg10 mi
Weather by CustomWeather, © 2016

See weather overviewHow to use our weather pages